Weather in Zdar nad Sazavou

Czech Republic     49°33′48″N   15°56′22″E
temp.,
°C
wind,
m/s
gust,
m/s
humid.,
%
clouds,
%
prec.,
mm/h
press.,
hPa
HPBL,
m
19 april, mon
mon1923:00+4nne1188100 0.0 102024
02:00+4ne1189100 0.1 101914
05:00+4nnw2288100 0.0 101855
08:00+5n2486100 0.0 1018215
11:00+8ne3466100 0.0 10181215
14:00+8nne4470100 0.2 1017918
17:00+5nne4592100 0.8 1017793
20:00+5n369679 1.3 1017364
20 april, tue
tue2023:00+4nnw2397100 0.0 101771
02:00+3nnw349834 0.1 101688
05:00+4n359790 0.0 1016195
08:00+6n358863 0.1 1016181
11:00+10ne445277 0.3 10151776
14:00+11ne224983 0.4 10151540
17:00+12n224976 0.2 10131483
20:00+7n116969 0.3 101411
21 april, wed
wed2123:00+5nw00815 0.0 101510
02:00+4wnw11835 0.0 101510
05:00+4wnw228655 0.0 101510
08:00+7wnw25825 0.0 1015223
11:00+11wnw456626 0.5 10141150
14:00+13wnw455731 2.0 10131505
17:00+12nw446070 1.7 10121232
20:00+8w2284100 2.9 101322
22 april, thu
thu2223:00+8nnw1183100 0.5 101310
02:00+5nw2284100 0.5 101437
05:00+3nw41097100 0.0 1015338
08:00+1nnw5996100 0.1 1017350
11:00+3nw4769100 0.3 1017665
14:00+6nw5747100 0.3 10161227
17:00+7nw6746100 0.0 10161745
20:00+3nw37635 0.0 1017145
23 april, fri
fri2323:000wnw22794 0.0 102025
02:00−1wnw39865 0.0 1021204
05:00−1wnw412895 0.0 1021433
08:00+1nw6107941 0.0 1023729
11:00+5nw6859100 0.0 10231488
14:00+5nw6858100 0.1 10231526
17:00+5nw6864100 0.1 10241292
20:00+2nnw36825 0.1 1026119